, OK

(GMT )
Enid

Weather History for KWDG - June, 2013

Change the Weather History Date:

Sunday, June 30, 2013

  Actual Average Record
Temperature  
Mean Temperature 73 °F -  
Max Temperature 86 °F 90 °F 105 °F (2011)
Min Temperature 60 °F 68 °F 59 °F (2006)
Cooling Degree Days 8    
Growing Degree Days 23 (Base 50)    
Moisture  
Dew Point 54 °F    
Average Humidity 60    
Maximum Humidity 82    
Minimum Humidity 30    
Precipitation  
Precipitation 0.00 in - - ()
Sea Level Pressure  
Sea Level Pressure 29.98 in    
Wind  
Wind Speed 8 mph (North)    
Max Wind Speed 18 mph    
Max Gust Speed 25 mph    
Visibility 10 miles    
Events      
Averages and records for this station are not official NWS values.
T = Trace of Precipitation, MM = Missing Value Source: NWS Daily Summary

Daily Weather History Graph

Daily Weather History Graph

Search for Another Location

Airport or City:

Trip Planner

Search our weather history database for the weather conditions in past years. The results will help you decide how hot, cold, wet, or windy it might be!

Date:

Astronomy

Jun. 30, 2013 Rise Set
Actual Time 6:16 AM CDT 8:53 PM CDT
Civil Twilight 5:46 AM CDT 9:23 PM CDT
Nautical Twilight 5:08 AM CDT 10:01 PM CDT
Astronomical Twilight 4:26 AM CDT 10:43 PM CDT
Moon 1:07 AM CDT (6/30) 2:16 PM CDT (6/30)
Length of Visible Light 15h 37m
Length of Day
14h 36m
Last Quarter, 45% of the Moon is Illuminated
Jun 30
Last Quarter
Jul 8
New
Jul 15
First Quarter
Jul 22
Full
Jul 29
Last Quarter

Hourly Weather History & Observations

Time (CDT) Temp. Heat Index Dew Point Humidity Pressure Visibility Wind Dir Wind Speed Gust Speed Precip Events Conditions
12:15 AM 68.0 °F - 53.6 °F 60% 29.94 in 10.0 mi North 8.1 mph - N/A   Clear
12:35 AM 64.4 °F - 55.4 °F 73% 29.94 in 10.0 mi North 8.1 mph - N/A   Clear
12:55 AM 66.2 °F - 55.4 °F 68% 29.94 in 10.0 mi NNE 6.9 mph - N/A   Clear
1:15 AM 66.2 °F - 53.6 °F 64% 29.95 in 10.0 mi NNE 6.9 mph - N/A   Clear
1:35 AM 64.4 °F - 53.6 °F 68% 29.95 in 10.0 mi North 6.9 mph - N/A   Clear
1:55 AM 62.6 °F - 53.6 °F 72% 29.95 in 10.0 mi NNW 5.8 mph - N/A   Clear
2:15 AM 62.6 °F - 53.6 °F 72% 29.96 in 10.0 mi North 5.8 mph - N/A   Clear
2:35 AM 62.6 °F - 53.6 °F 72% 29.96 in 10.0 mi North 8.1 mph - N/A   Clear
2:55 AM 62.6 °F - 53.6 °F 72% 29.96 in 10.0 mi North 8.1 mph - N/A   Clear
3:15 AM 62.6 °F - 53.6 °F 72% 29.96 in 10.0 mi North 9.2 mph - N/A   Clear
3:35 AM 62.6 °F - 53.6 °F 72% 29.96 in 10.0 mi North 6.9 mph - N/A   Clear
3:55 AM 60.8 °F - 53.6 °F 77% 29.96 in 10.0 mi NNW 6.9 mph - N/A   Clear
4:15 AM 60.8 °F - 53.6 °F 77% 29.96 in 10.0 mi North 8.1 mph - N/A   Clear
4:35 AM 60.8 °F - 53.6 °F 77% 29.96 in 10.0 mi North 6.9 mph - N/A   Clear
4:55 AM 60.8 °F - 53.6 °F 77% 29.97 in 10.0 mi North 8.1 mph - N/A   Clear
5:15 AM 60.8 °F - 53.6 °F 77% 29.97 in 10.0 mi NNW 6.9 mph - N/A   Clear
5:35 AM 60.8 °F - 53.6 °F 77% 29.98 in 10.0 mi NNW 9.2 mph - N/A   Clear
5:55 AM 60.8 °F - 53.6 °F 77% 29.99 in 10.0 mi NNW 6.9 mph - N/A   Clear
6:15 AM 60.8 °F - 55.4 °F 82% 29.99 in 10.0 mi WSW 8.1 mph - N/A   Scattered Clouds
6:50 AM 62.6 °F - 55.4 °F 77% 30.00 in 10.0 mi NNW 8.1 mph - N/A   Scattered Clouds
7:50 AM 69.8 °F - 57.2 °F 64% 30.01 in 10.0 mi North 8.1 mph - N/A   Partly Cloudy
8:55 AM 75.2 °F - 57.2 °F 53% 30.03 in 10.0 mi North 8.1 mph - N/A   Partly Cloudy
9:50 AM 78.8 °F - 55.4 °F 44% 30.03 in 10.0 mi North 10.4 mph - N/A   Partly Cloudy
10:50 AM 80.6 °F 80.5 °F 55.4 °F 42% 30.02 in 10.0 mi North 11.5 mph - N/A   Scattered Clouds
11:50 AM 82.4 °F 81.4 °F 53.6 °F 37% 30.01 in 10.0 mi North 15.0 mph - N/A   Scattered Clouds
12:50 PM 84.2 °F 82.8 °F 53.6 °F 35% 29.99 in 10.0 mi NNE 18.4 mph - N/A   Scattered Clouds
1:50 PM 86.0 °F - 51.8 °F 31% 29.98 in 10.0 mi North 17.3 mph - N/A   Scattered Clouds
2:50 PM 86.0 °F - 51.8 °F 31% 29.97 in 10.0 mi North 18.4 mph 25.3 mph N/A   Mostly Cloudy
3:50 PM 86.0 °F - 51.8 °F 31% 29.96 in 10.0 mi North 11.5 mph 19.6 mph N/A   Mostly Cloudy
4:50 PM 86.0 °F - 51.8 °F 31% 29.96 in 10.0 mi North 13.8 mph 20.7 mph N/A   Mostly Cloudy
5:50 PM 82.4 °F - 50.0 °F 32% 29.96 in 10.0 mi North 12.7 mph 23.0 mph N/A   Mostly Cloudy
6:50 PM 82.4 °F - 48.2 °F 30% 29.96 in 10.0 mi NNE 13.8 mph - N/A   Mostly Cloudy
7:50 PM 80.6 °F - 51.8 °F 37% 29.98 in 7.0 mi NNE 11.5 mph - N/A   Mostly Cloudy
8:50 PM 73.4 °F - 53.6 °F 50% 29.98 in 7.0 mi NE 5.8 mph - N/A   Mostly Cloudy
9:15 PM 69.8 °F - 53.6 °F 56% 29.99 in 10.0 mi NE 8.1 mph - N/A   Clear
9:35 PM 69.8 °F - 51.8 °F 53% 30.00 in 10.0 mi NE 6.9 mph - N/A   Clear
9:55 PM 68.0 °F - 51.8 °F 56% 30.00 in 10.0 mi NE 6.9 mph - N/A   Clear
10:15 PM 68.0 °F - 53.6 °F 60% 30.01 in 10.0 mi NE 6.9 mph - N/A   Clear
10:35 PM 66.2 °F - 53.6 °F 64% 30.02 in 10.0 mi NE 5.8 mph - N/A   Clear
10:55 PM 62.6 °F - 53.6 °F 72% 30.04 in 10.0 mi North 3.5 mph - N/A   Clear
11:15 PM 62.6 °F - 53.6 °F 72% 30.04 in 10.0 mi North 4.6 mph - N/A   Clear
11:35 PM 62.6 °F - 53.6 °F 72% 30.05 in 10.0 mi North 4.6 mph - N/A   Clear
11:55 PM 60.8 °F - 53.6 °F 77% 30.05 in 10.0 mi NNW 3.5 mph - N/A   Clear